| time (UTC) | temp C | wind direction | speed KPH | gust KPH | rain 1hr cm | rain 24hr cm | rain mn cm | humidity % | barometer mb |
| 20260508153604 | 13 | 299 | 11.3 | 19.3 | 0.00 | 0.15 | 0.15 | 53 | 1013.3 |
| 20260508153104 | 13 | 265 | 6.4 | 14.5 | 0.00 | 0.15 | 0.15 | 57 | 1013.3 |
| 20260508152604 | 13 | 301 | 9.7 | 14.5 | 0.00 | 0.15 | 0.15 | 56 | 1013.2 |
| 20260508151604 | 13 | 350 | 6.4 | 14.5 | 0.00 | 0.15 | 0.15 | 54 | 1013.2 |
| 20260508151104 | 13 | 335 | 6.4 | 19.3 | 0.00 | 0.15 | 0.15 | 54 | 1013.3 |
| 20260508150104 | 13 | 296 | 3.2 | 14.5 | 0.00 | 0.15 | 0.15 | 54 | 1013.2 |
| 20260508145605 | 13 | 302 | 8.0 | 19.3 | 0.00 | 0.15 | 0.15 | 53 | 1013.3 |
| 20260508144604 | 13 | 290 | 4.8 | 14.5 | 0.00 | 0.15 | 0.15 | 58 | 1013.4 |
| 20260508144105 | 13 | 293 | 9.7 | 16.1 | 0.00 | 0.15 | 0.15 | 60 | 1013.6 |
| 20260508143603 | 13 | 278 | 4.8 | 9.7 | 0.00 | 0.15 | 0.15 | 60 | 1013.6 |
| 20260508143106 | 13 | 303 | 9.7 | 16.1 | 0.00 | 0.15 | 0.15 | 59 | 1013.6 |
| 20260508142103 | 13 | 337 | 4.8 | 14.5 | 0.00 | 0.15 | 0.15 | 63 | 1013.8 |
| 20260508141604 | 12 | 332 | 8.0 | 19.3 | 0.00 | 0.15 | 0.15 | 64 | 1013.8 |
| 20260508141105 | 13 | 259 | 6.4 | 14.5 | 0.00 | 0.15 | 0.15 | 65 | 1013.8 |
| 20260508140604 | 12 | 266 | 6.4 | 12.9 | 0.00 | 0.15 | 0.15 | 66 | 1013.8 |
| 20260508140103 | 12 | 290 | 6.4 | 14.5 | 0.00 | 0.15 | 0.15 | 66 | 1013.8 |
| 20260508135604 | 12 | 346 | 9.7 | 19.3 | 0.00 | 0.15 | 0.15 | 64 | 1013.9 |
| 20260508135104 | 12 | 315 | 6.4 | 19.3 | 0.00 | 0.15 | 0.15 | 66 | 1013.7 |
| 20260508134604 | 12 | 313 | 3.2 | 16.1 | 0.00 | 0.15 | 0.15 | 66 | 1013.7 |
| 20260508134103 | 12 | 351 | 4.8 | 11.3 | 0.00 | 0.15 | 0.15 | 66 | 1013.7 |
| 20260508133604 | 12 | 267 | 9.7 | 19.3 | 0.00 | 0.15 | 0.15 | 66 | 1013.7 |
| 20260508133104 | 12 | 342 | 3.2 | 12.9 | 0.00 | 0.15 | 0.15 | 71 | 1013.7 |
| 20260508132604 | 11 | 283 | 3.2 | 12.9 | 0.00 | 0.15 | 0.15 | 71 | 1013.7 |
| 20260508132104 | 11 | 6 | 3.2 | 4.8 | 0.00 | 0.15 | 0.15 | 75 | 1013.7 |
| 20260508131604 | 10 | 332 | 3.2 | 11.3 | 0.00 | 0.15 | 0.15 | 75 | 1013.8 |
| 20260508131103 | 10 | 294 | 9.7 | 19.3 | 0.00 | 0.15 | 0.15 | 75 | 1013.9 |
| 20260508130604 | 10 | 292 | 4.8 | 16.1 | 0.00 | 0.15 | 0.15 | 77 | 1014.0 |
| 20260508130105 | 10 | 357 | 8.0 | 16.1 | 0.00 | 0.15 | 0.15 | 78 | 1014.0 |
| 20260508124603 | 10 | 269 | 3.2 | 12.9 | 0.00 | 0.15 | 0.15 | 82 | 1014.0 |
| 20260508124103 | 9 | 318 | 1.6 | 8.0 | 0.00 | 0.15 | 0.15 | 82 | 1013.9 |
| 20260508123104 | 8 | 296 | 6.4 | 12.9 | 0.00 | 0.15 | 0.15 | 84 | 1013.9 |
| 20260508122604 | 8 | 287 | 1.6 | 4.8 | 0.00 | 0.15 | 0.15 | 85 | 1013.8 |
| 20260508122104 | 8 | 203 | 1.6 | 8.0 | 0.00 | 0.15 | 0.15 | 86 | 1013.7 |
| 20260508121605 | 8 | 350 | 6.4 | 16.1 | 0.00 | 0.15 | 0.15 | 86 | 1014.1 |
| 20260508121104 | 8 | 292 | 8.0 | 14.5 | 0.00 | 0.15 | 0.15 | 87 | 1014.2 |
| 20260508120604 | 8 | 294 | 4.8 | 11.3 | 0.00 | 0.15 | 0.15 | 88 | 1014.3 |
| 20260508120104 | 7 | 309 | 4.8 | 14.5 | 0.00 | 0.15 | 0.15 | 88 | 1014.3 |
| 20260508115604 | 7 | 314 | 3.2 | 11.3 | 0.00 | 0.15 | 0.15 | 89 | 1014.3 |
| 20260508114604 | 7 | 313 | 4.8 | 12.9 | 0.00 | 0.15 | 0.15 | 90 | 1014.1 |
| 20260508114105 | 7 | 298 | 4.8 | 11.3 | 0.00 | 0.15 | 0.15 | 90 | 1014.2 |
| 20260508113604 | 7 | 299 | 3.2 | 9.7 | 0.00 | 0.15 | 0.15 | 91 | 1014.2 |
| 20260508113105 | 7 | 316 | 8.0 | 16.1 | 0.00 | 0.15 | 0.15 | 91 | 1014.3 |
| 20260508112604 | 7 | 315 | 6.4 | 16.1 | 0.00 | 0.15 | 0.15 | 91 | 1014.3 |
| 20260508112105 | 7 | 314 | 6.4 | 14.5 | 0.00 | 0.15 | 0.15 | 91 | 1014.2 |
| 20260508111604 | 7 | 311 | 6.4 | 14.5 | 0.00 | 0.15 | 0.15 | 92 | 1014.1 |
| 20260508111104 | 7 | 326 | 1.6 | 9.7 | 0.00 | 0.15 | 0.15 | 92 | 1014.0 |
| 20260508110604 | 6 | 309 | 1.6 | 4.8 | 0.00 | 0.15 | 0.15 | 92 | 1013.9 |
| 20260508110104 | 6 | 307 | 3.2 | 9.7 | 0.00 | 0.15 | 0.15 | 92 | 1013.9 |
| 20260508104604 | 6 | 309 | 1.6 | 4.8 | 0.00 | 0.15 | 0.15 | 92 | 1013.6 |
| 20260508104105 | 6 | 311 | 1.6 | 4.8 | 0.00 | 0.15 | 0.15 | 92 | 1013.6 |
| 20260508103604 | 6 | 293 | 3.2 | 11.3 | 0.00 | 0.15 | 0.15 | 92 | 1013.5 |
| 20260508103104 | 6 | 298 | 3.2 | 9.7 | 0.00 | 0.15 | 0.15 | 92 | 1013.5 |
| 20260508102104 | 6 | 310 | 3.2 | 4.8 | 0.00 | 0.15 | 0.15 | 92 | 1013.6 |
| 20260508101604 | 6 | 305 | 3.2 | 9.7 | 0.00 | 0.15 | 0.15 | 92 | 1013.5 |
| 20260508101105 | 6 | 308 | 4.8 | 9.7 | 0.00 | 0.15 | 0.15 | 92 | 1013.5 |
| 20260508100605 | 6 | 304 | 3.2 | 9.7 | 0.00 | 0.15 | 0.15 | 92 | 1013.4 |
| 20260508100104 | 6 | 298 | 3.2 | 11.3 | 0.00 | 0.15 | 0.15 | 92 | 1013.2 |
| 20260508095604 | 6 | 286 | 4.8 | 9.7 | 0.00 | 0.15 | 0.15 | 92 | 1013.2 |
| 20260508095103 | 6 | 308 | 4.8 | 11.3 | 0.00 | 0.15 | 0.15 | 92 | 1013.2 |
| 20260508094604 | 6 | 303 | 1.6 | 9.7 | 0.00 | 0.15 | 0.15 | 92 | 1013.2 |
| 20260508094105 | 6 | 306 | 1.6 | 4.8 | 0.00 | 0.15 | 0.15 | 91 | 1013.2 |
| 20260508093604 | 6 | 308 | 3.2 | 4.8 | 0.00 | 0.15 | 0.15 | 91 | 1013.1 |
| 20260508093104 | 6 | 314 | 3.2 | 9.7 | 0.00 | 0.15 | 0.15 | 91 | 1013.1 |
| 20260508092103 | 6 | 294 | 0.0 | 4.8 | 0.00 | 0.15 | 0.15 | 91 | 1013.2 |
| 20260508091604 | 6 | 311 | 1.6 | 4.8 | 0.00 | 0.15 | 0.15 | 91 | 1013.1 |
| 20260508091105 | 6 | 303 | 0.0 | 4.8 | 0.00 | 0.15 | 0.15 | 91 | 1013.0 |
| 20260508090603 | 6 | 302 | 0.0 | 3.2 | 0.00 | 0.15 | 0.15 | 91 | 1013.0 |
| 20260508090104 | 6 | 302 | 1.6 | 4.8 | 0.00 | 0.15 | 0.15 | 90 | 1012.8 |
| 20260508085604 | 6 | 302 | 0.0 | 3.2 | 0.00 | 0.15 | 0.15 | 91 | 1012.8 |
| 20260508085104 | 6 | 302 | 0.0 | 0.0 | 0.00 | 0.15 | 0.15 | 90 | 1012.8 |
| 20260508083604 | 6 | 302 | 0.0 | 0.0 | 0.00 | 0.15 | 0.15 | 90 | 1012.7 |
| 20260508082604 | 6 | 302 | 0.0 | 0.0 | 0.00 | 0.15 | 0.15 | 90 | 1012.7 |
| 20260508082104 | 6 | 302 | 0.0 | 0.0 | 0.00 | 0.15 | 0.15 | 90 | 1012.7 |
| 20260508081605 | 7 | 302 | 0.0 | 1.6 | 0.00 | 0.15 | 0.15 | 90 | 1012.8 |
| 20260508080604 | 7 | 299 | 0.0 | 1.6 | 0.00 | 0.15 | 0.15 | 90 | 1012.8 |
| 20260508080104 | 7 | 299 | 0.0 | 3.2 | 0.00 | 0.15 | 0.15 | 89 | 1012.7 |
| 20260508075603 | 7 | 299 | 0.0 | 0.0 | 0.00 | 0.15 | 0.15 | 89 | 1012.7 |
| 20260508075105 | 7 | 299 | 0.0 | 4.8 | 0.00 | 0.15 | 0.15 | 89 | 1012.8 |
| 20260508074605 | 7 | 289 | 1.6 | 4.8 | 0.00 | 0.15 | 0.15 | 89 | 1012.9 |
| 20260508074103 | 7 | 297 | 1.6 | 4.8 | 0.00 | 0.18 | 0.15 | 89 | 1012.8 |
| 20260508073603 | 7 | 297 | 0.0 | 4.8 | 0.00 | 0.18 | 0.15 | 89 | 1012.8 |
| 20260508073103 | 7 | 297 | 3.2 | 4.8 | 0.00 | 0.18 | 0.15 | 89 | 1012.8 |
| 20260508072604 | 7 | 297 | 3.2 | 4.8 | 0.00 | 0.18 | 0.15 | 89 | 1012.7 |
| 20260508071604 | 7 | 267 | 0.0 | 4.8 | 0.00 | 0.18 | 0.15 | 89 | 1012.9 |
| 20260508071104 | 7 | 297 | 3.2 | 4.8 | 0.00 | 0.18 | 0.15 | 88 | 1013.0 |
| 20260508070604 | 7 | 317 | 1.6 | 4.8 | 0.00 | 0.18 | 0.15 | 88 | 1013.2 |
| 20260508070104 | 7 | 335 | 1.6 | 4.8 | 0.03 | 0.18 | 0.15 | 88 | 1013.1 |
| 20260508065604 | 7 | 308 | 1.6 | 4.8 | 0.03 | 0.20 | 0.15 | 88 | 1012.9 |
| 20260508065104 | 7 | 305 | 0.0 | 1.6 | 0.05 | 0.20 | 0.15 | 87 | 1012.7 |
| 20260508064604 | 7 | 305 | 0.0 | 3.2 | 0.05 | 0.20 | 0.15 | 87 | 1012.6 |
| 20260508064104 | 7 | 305 | 0.0 | 0.0 | 0.05 | 0.20 | 0.15 | 87 | 1012.6 |
| 20260508063604 | 7 | 305 | 1.6 | 3.2 | 0.08 | 0.20 | 0.15 | 86 | 1012.9 |
| 20260508062604 | 7 | 319 | 1.6 | 4.8 | 0.10 | 0.20 | 0.15 | 85 | 1013.1 |
| 20260508061604 | 7 | 299 | 0.0 | 4.8 | 0.13 | 0.23 | 0.15 | 85 | 1013.1 |
| 20260508060604 | 7 | 344 | 1.6 | 11.3 | 0.13 | 0.23 | 0.15 | 84 | 1013.2 |
| 20260508060105 | 8 | 1 | 0.0 | 3.2 | 0.13 | 0.20 | 0.13 | 84 | 1013.3 |
| 20260508055604 | 8 | 355 | 0.0 | 0.0 | 0.13 | 0.20 | 0.13 | 83 | 1013.3 |
| 20260508055105 | 8 | 1 | 0.0 | 0.0 | 0.10 | 0.18 | 0.10 | 83 | 1013.3 |
| 20260508054604 | 8 | 327 | 0.0 | 0.0 | 0.10 | 0.20 | 0.10 | 83 | 1013.1 |
| 20260508053604 | 8 | 308 | 0.0 | 0.0 | 0.08 | 0.18 | 0.08 | 82 | 1012.6 |
| 20260508053105 | 8 | 20 | 0.0 | 0.0 | 0.05 | 0.15 | 0.05 | 81 | 1011.9 |
| 20260508052604 | 8 | 99 | 0.0 | 0.0 | 0.05 | 0.15 | 0.05 | 80 | 1011.6 |
| 20260508052104 | 8 | 103 | 0.0 | 0.0 | 0.03 | 0.13 | 0.03 | 78 | 1011.7 |
| 20260508051604 | 8 | 103 | 0.0 | 0.0 | 0.03 | 0.13 | 0.03 | 77 | 1011.5 |
| 20260508051103 | 8 | 103 | 0.0 | 0.0 | 0.03 | 0.13 | 0.03 | 76 | 1011.6 |
| 20260508050604 | 9 | 104 | 0.0 | 0.0 | 0.03 | 0.13 | 0.03 | 76 | 1011.6 |
| 20260508050104 | 8 | 104 | 0.0 | 0.0 | 0.00 | 0.10 | 0.00 | 75 | 1011.6 |
| 20260508045604 | 8 | 104 | 0.0 | 0.0 | 0.00 | 0.10 | 0.00 | 74 | 1011.5 |
| 20260508045103 | 8 | 104 | 0.0 | 0.0 | 0.00 | 0.10 | 0.00 | 74 | 1011.4 |
| 20260508044604 | 8 | 104 | 0.0 | 0.0 | 0.00 | 0.10 | 0.00 | 74 | 1011.4 |
| 20260508043604 | 8 | 104 | 0.0 | 0.0 | 0.00 | 0.10 | 0.00 | 74 | 1011.3 |
| 20260508043104 | 8 | 104 | 0.0 | 0.0 | 0.00 | 0.10 | 0.00 | 75 | 1011.2 |
| 20260508042104 | 8 | 90 | 0.0 | 0.0 | 0.00 | 0.10 | 0.00 | 76 | 1011.2 |
| 20260508041604 | 8 | 90 | 0.0 | 0.0 | 0.00 | 0.10 | 0.00 | 76 | 1011.1 |
| 20260508040604 | 8 | 36 | 0.0 | 0.0 | 0.00 | 0.10 | 0.00 | 78 | 1011.1 |
| 20260508040105 | 8 | 29 | 0.0 | 0.0 | 0.00 | 0.10 | 0.00 | 77 | 1011.2 |
| 20260508035604 | 8 | 29 | 0.0 | 0.0 | 0.00 | 0.10 | 0.10 | 77 | 1011.2 |
| 20260508034605 | 8 | 29 | 0.0 | 0.0 | 0.00 | 0.10 | 0.10 | 76 | 1011.2 |
| 20260508034104 | 7 | 29 | 0.0 | 0.0 | 0.00 | 0.10 | 0.10 | 76 | 1011.2 |
| 20260508033604 | 7 | 29 | 0.0 | 0.0 | 0.00 | 0.10 | 0.10 | 76 | 1011.2 |
| 20260508033104 | 7 | 29 | 0.0 | 0.0 | 0.00 | 0.10 | 0.10 | 76 | 1011.3 |
| 20260508032604 | 7 | 29 | 0.0 | 0.0 | 0.00 | 0.10 | 0.10 | 76 | 1011.4 |
| 20260508032104 | 7 | 29 | 0.0 | 0.0 | 0.00 | 0.10 | 0.10 | 75 | 1011.3 |
| 20260508031604 | 7 | 29 | 0.0 | 0.0 | 0.00 | 0.10 | 0.10 | 74 | 1011.3 |
| 20260508031104 | 8 | 29 | 0.0 | 0.0 | 0.00 | 0.10 | 0.10 | 74 | 1011.2 |
| 20260508030605 | 8 | 29 | 0.0 | 0.0 | 0.00 | 0.10 | 0.10 | 73 | 1011.3 |
| 20260508025604 | 8 | 29 | 0.0 | 0.0 | 0.00 | 0.10 | 0.10 | 73 | 1011.4 |
| 20260508025104 | 8 | 29 | 0.0 | 0.0 | 0.00 | 0.10 | 0.10 | 73 | 1011.3 |
| 20260508024604 | 8 | 29 | 0.0 | 0.0 | 0.00 | 0.10 | 0.10 | 72 | 1011.2 |
| 20260508024103 | 8 | 29 | 0.0 | 0.0 | 0.00 | 0.10 | 0.10 | 72 | 1011.2 |
| 20260508023604 | 8 | 29 | 0.0 | 0.0 | 0.00 | 0.10 | 0.10 | 72 | 1011.1 |
| 20260508022604 | 8 | 29 | 0.0 | 0.0 | 0.00 | 0.10 | 0.10 | 72 | 1011.2 |
| 20260508022103 | 8 | 29 | 0.0 | 0.0 | 0.00 | 0.10 | 0.10 | 71 | 1011.2 |
| 20260508021604 | 8 | 29 | 0.0 | 0.0 | 0.00 | 0.10 | 0.10 | 70 | 1011.2 |
| 20260508021104 | 9 | 35 | 0.0 | 0.0 | 0.00 | 0.10 | 0.10 | 68 | 1011.0 |
| 20260508020603 | 9 | 35 | 0.0 | 12.9 | 0.00 | 0.10 | 0.10 | 67 | 1010.9 |
| 20260508020104 | 8 | 36 | 0.0 | 8.0 | 0.00 | 0.10 | 0.10 | 70 | 1010.9 |
| 20260508015604 | 8 | 54 | 0.0 | 4.8 | 0.00 | 0.10 | 0.10 | 70 | 1010.9 |
| 20260508015103 | 9 | 45 | 0.0 | 3.2 | 0.00 | 0.10 | 0.10 | 68 | 1010.8 |
| 20260508014604 | 9 | 45 | 0.0 | 0.0 | 0.00 | 0.10 | 0.10 | 67 | 1010.7 |
| 20260508013104 | 10 | 45 | 0.0 | 1.6 | 0.00 | 0.10 | 0.10 | 63 | 1010.5 |
| 20260508012604 | 10 | 45 | 0.0 | 0.0 | 0.00 | 0.10 | 0.10 | 64 | 1010.5 |
| 20260508012104 | 10 | 45 | 0.0 | 0.0 | 0.00 | 0.10 | 0.10 | 63 | 1010.5 |
| 20260508011604 | 10 | 45 | 0.0 | 0.0 | 0.00 | 0.10 | 0.10 | 62 | 1010.6 |
| 20260508011104 | 10 | 45 | 0.0 | 0.0 | 0.00 | 0.10 | 0.10 | 62 | 1010.5 |
| 20260508010104 | 10 | 45 | 0.0 | 0.0 | 0.00 | 0.10 | 0.10 | 60 | 1010.4 |
| 20260508005605 | 10 | 45 | 0.0 | 0.0 | 0.00 | 0.10 | 0.10 | 61 | 1010.3 |
| 20260508005103 | 11 | 45 | 0.0 | 0.0 | 0.00 | 0.10 | 0.10 | 60 | 1010.2 |
| 20260508004605 | 11 | 45 | 0.0 | 0.0 | 0.00 | 0.10 | 0.10 | 59 | 1010.3 |
| 20260508004104 | 11 | 45 | 0.0 | 0.0 | 0.00 | 0.10 | 0.10 | 58 | 1010.3 |
| 20260508003604 | 11 | 45 | 0.0 | 0.0 | 0.00 | 0.10 | 0.10 | 56 | 1010.1 |
| 20260508002605 | 11 | 45 | 0.0 | 0.0 | 0.00 | 0.10 | 0.10 | 55 | 1010.0 |
| 20260508001104 | 12 | 45 | 0.0 | 3.2 | 0.00 | 0.10 | 0.10 | 51 | 1009.9 |
| 20260508000104 | 13 | 18 | 0.0 | 1.6 | 0.00 | 0.10 | 0.10 | 49 | 1009.7 |
| 20260507235604 | 13 | 18 | 0.0 | 1.6 | 0.00 | 0.10 | 0.10 | 48 | 1009.7 |
| 20260507234603 | 13 | 18 | 0.0 | 0.0 | 0.00 | 0.10 | 0.10 | 45 | 1009.8 |
| 20260507234104 | 14 | 18 | 0.0 | 0.0 | 0.00 | 0.10 | 0.10 | 45 | 1009.7 |
| 20260507233603 | 14 | 18 | 0.0 | 3.2 | 0.00 | 0.10 | 0.10 | 42 | 1009.6 |
| 20260507233103 | 14 | 18 | 1.6 | 4.8 | 0.00 | 0.10 | 0.10 | 42 | 1009.7 |
| 20260507232604 | 15 | 26 | 0.0 | 4.8 | 0.00 | 0.10 | 0.10 | 42 | 1009.5 |
| 20260507232104 | 15 | 25 | 3.2 | 8.0 | 0.00 | 0.10 | 0.10 | 40 | 1009.3 |
| 20260507231604 | 15 | 40 | 3.2 | 8.0 | 0.00 | 0.10 | 0.10 | 40 | 1009.3 |
| 20260507231104 | 15 | 97 | 4.8 | 16.1 | 0.00 | 0.10 | 0.10 | 39 | 1009.3 |
| 20260507230604 | 15 | 38 | 3.2 | 14.5 | 0.00 | 0.10 | 0.10 | 40 | 1009.4 |
| 20260507230104 | 15 | 15 | 3.2 | 14.5 | 0.00 | 0.10 | 0.10 | 39 | 1009.3 |
| 20260507225604 | 15 | 53 | 3.2 | 19.3 | 0.00 | 0.10 | 0.10 | 39 | 1009.3 |
| 20260507225104 | 15 | 37 | 4.8 | 19.3 | 0.00 | 0.10 | 0.10 | 38 | 1009.3 |
| 20260507224603 | 15 | 13 | 4.8 | 12.9 | 0.00 | 0.10 | 0.10 | 39 | 1009.2 |
| 20260507224105 | 15 | 325 | 3.2 | 8.0 | 0.00 | 0.10 | 0.10 | 39 | 1009.4 |
| 20260507223603 | 15 | 358 | 3.2 | 16.1 | 0.00 | 0.10 | 0.10 | 38 | 1009.3 |
| 20260507222604 | 15 | 8 | 3.2 | 14.5 | 0.00 | 0.10 | 0.10 | 39 | 1009.5 |
| 20260507222104 | 16 | 348 | 3.2 | 14.5 | 0.00 | 0.10 | 0.10 | 39 | 1009.5 |
| 20260507221104 | 16 | 16 | 11.3 | 24.1 | 0.00 | 0.10 | 0.10 | 37 | 1009.4 |
| 20260507220603 | 16 | 22 | 3.2 | 12.9 | 0.00 | 0.10 | 0.10 | 40 | 1009.4 |
| 20260507220104 | 16 | 346 | 4.8 | 16.1 | 0.00 | 0.10 | 0.10 | 39 | 1009.4 |
| 20260507215604 | 16 | 30 | 3.2 | 14.5 | 0.00 | 0.10 | 0.10 | 40 | 1009.5 |
| 20260507215104 | 16 | 25 | 4.8 | 12.9 | 0.00 | 0.10 | 0.10 | 38 | 1009.5 |
| 20260507214604 | 16 | 15 | 3.2 | 14.5 | 0.00 | 0.10 | 0.10 | 39 | 1009.6 |
| 20260507213604 | 16 | 329 | 4.8 | 9.7 | 0.00 | 0.10 | 0.10 | 38 | 1009.3 |
| 20260507212603 | 16 | 73 | 4.8 | 22.5 | 0.00 | 0.10 | 0.10 | 37 | 1009.3 |
| 20260507212103 | 16 | 17 | 8.0 | 22.5 | 0.00 | 0.10 | 0.10 | 38 | 1009.2 |
| 20260507211603 | 16 | 17 | 8.0 | 14.5 | 0.00 | 0.10 | 0.10 | 38 | 1009.2 |
| 20260507211103 | 16 | 43 | 8.0 | 20.9 | 0.00 | 0.10 | 0.10 | 36 | 1009.1 |
| 20260507205603 | 17 | 34 | 8.0 | 19.3 | 0.00 | 0.10 | 0.10 | 38 | 1009.0 |
| 20260507205104 | 16 | 51 | 6.4 | 16.1 | 0.00 | 0.10 | 0.10 | 37 | 1008.9 |
| 20260507203605 | 17 | 338 | 11.3 | 24.1 | 0.00 | 0.10 | 0.10 | 35 | 1008.9 |
| 20260507203104 | 17 | 23 | 8.0 | 19.3 | 0.00 | 0.10 | 0.10 | 36 | 1008.9 |
| 20260507202604 | 17 | 63 | 4.8 | 19.3 | 0.00 | 0.10 | 0.10 | 37 | 1009.0 |
| 20260507202104 | 17 | 358 | 4.8 | 19.3 | 0.00 | 0.10 | 0.10 | 36 | 1009.0 |
| 20260507201603 | 17 | 344 | 8.0 | 24.1 | 0.00 | 0.10 | 0.10 | 37 | 1008.8 |
| 20260507200603 | 18 | 24 | 3.2 | 14.5 | 0.00 | 0.10 | 0.10 | 39 | 1009.0 |
| 20260507195604 | 17 | 41 | 9.7 | 19.3 | 0.00 | 0.10 | 0.10 | 39 | 1009.1 |
| 20260507195104 | 17 | 19 | 6.4 | 14.5 | 0.00 | 0.10 | 0.10 | 38 | 1009.1 |
| 20260507194604 | 17 | 318 | 8.0 | 14.5 | 0.00 | 0.13 | 0.10 | 37 | 1009.2 |
| 20260507194104 | 17 | 27 | 8.0 | 19.3 | 0.00 | 0.13 | 0.10 | 38 | 1009.3 |
| 20260507193103 | 18 | 16 | 4.8 | 9.7 | 0.00 | 0.13 | 0.10 | 40 | 1009.4 |
| 20260507191104 | 16 | 50 | 4.8 | 14.5 | 0.00 | 0.13 | 0.10 | 38 | 1009.5 |
| 20260507190604 | 17 | 325 | 9.7 | 19.3 | 0.00 | 0.13 | 0.10 | 38 | 1009.7 |
| 20260507190105 | 17 | 354 | 8.0 | 16.1 | 0.00 | 0.13 | 0.10 | 40 | 1009.8 |
| 20260507185103 | 17 | 4 | 9.7 | 27.4 | 0.00 | 0.13 | 0.10 | 39 | 1009.8 |
| 20260507184103 | 16 | 251 | 3.2 | 19.3 | 0.00 | 0.13 | 0.10 | 39 | 1010.0 |
| 20260507183103 | 17 | 340 | 9.7 | 19.3 | 0.00 | 0.13 | 0.10 | 37 | 1010.0 |
| 20260507182603 | 17 | 24 | 8.0 | 20.9 | 0.00 | 0.13 | 0.10 | 39 | 1010.2 |
| 20260507182104 | 16 | 337 | 3.2 | 12.9 | 0.00 | 0.13 | 0.10 | 42 | 1010.1 |
| 20260507181604 | 17 | 2 | 8.0 | 14.5 | 0.00 | 0.13 | 0.10 | 41 | 1010.3 |
| 20260507181104 | 17 | 42 | 8.0 | 19.3 | 0.00 | 0.13 | 0.10 | 40 | 1010.3 |
| 20260507180103 | 17 | 327 | 6.4 | 19.3 | 0.00 | 0.13 | 0.10 | 40 | 1010.3 |
| 20260507175604 | 17 | 356 | 6.4 | 19.3 | 0.00 | 0.15 | 0.10 | 40 | 1010.3 |
| 20260507175103 | 17 | 319 | 6.4 | 19.3 | 0.00 | 0.15 | 0.10 | 40 | 1010.4 |
| 20260507174104 | 16 | 49 | 8.0 | 19.3 | 0.00 | 0.18 | 0.10 | 41 | 1010.4 |
| 20260507172603 | 16 | 13 | 4.8 | 14.5 | 0.00 | 0.18 | 0.10 | 41 | 1010.6 |
| 20260507172104 | 16 | 5 | 4.8 | 19.3 | 0.00 | 0.18 | 0.10 | 40 | 1010.7 |
| 20260507171603 | 16 | 339 | 9.7 | 20.9 | 0.00 | 0.18 | 0.10 | 40 | 1010.8 |
| 20260507171104 | 16 | 347 | 6.4 | 19.3 | 0.00 | 0.18 | 0.10 | 44 | 1010.7 |
| 20260507170604 | 16 | 0 | 8.0 | 19.3 | 0.00 | 0.18 | 0.10 | 43 | 1010.8 |
| 20260507170104 | 16 | 354 | 6.4 | 19.3 | 0.00 | 0.18 | 0.10 | 40 | 1010.9 |
| 20260507165603 | 16 | 355 | 8.0 | 19.3 | 0.00 | 0.20 | 0.10 | 45 | 1010.8 |
| 20260507165104 | 16 | 310 | 8.0 | 19.3 | 0.00 | 0.20 | 0.10 | 40 | 1011.0 |
| 20260507164603 | 16 | 43 | 4.8 | 16.1 | 0.00 | 0.20 | 0.10 | 44 | 1011.1 |
| 20260507163603 | 15 | 28 | 4.8 | 19.3 | 0.00 | 0.20 | 0.10 | 46 | 1011.2 |
| 20260507163103 | 15 | 346 | 8.0 | 20.9 | 0.00 | 0.23 | 0.10 | 46 | 1011.3 |
| 20260507162604 | 15 | 358 | 6.4 | 16.1 | 0.00 | 0.23 | 0.10 | 44 | 1011.4 |
| 20260507162103 | 15 | 58 | 6.4 | 14.5 | 0.00 | 0.25 | 0.10 | 49 | 1011.4 |
| 20260507160604 | 15 | 23 | 6.4 | 14.5 | 0.00 | 0.28 | 0.10 | 46 | 1011.7 |
| 20260507160104 | 15 | 306 | 1.6 | 9.7 | 0.00 | 0.28 | 0.10 | 45 | 1011.7 |
| 20260507155603 | 15 | 29 | 4.8 | 11.3 | 0.00 | 0.28 | 0.10 | 44 | 1011.9 |
| 20260507155103 | 15 | 292 | 3.2 | 16.1 | 0.00 | 0.30 | 0.10 | 46 | 1012.0 |
| 20260507154604 | 15 | 329 | 6.4 | 12.9 | 0.00 | 0.30 | 0.10 | 43 | 1012.2 |
| 20260507154104 | 15 | 44 | 11.3 | 19.3 | 0.00 | 0.30 | 0.10 | 46 | 1012.2 |